This is the latest recevied weather packets stored in our database for station/object WD5U-1. If no packets are shown the sender has not sent any weather packets the latest 10 day(s).
| Time | Temp. | Humidity | Pressure | Rain* | Wind** | Luminosity | Snow |
|---|---|---|---|---|---|---|---|
| 1777201718 | 22.22° C | 90% | 1007.9 hPa | 0 mm | - | - | - |
| 1777201465 | 22.22° C | 89% | 1007.8 hPa | 0 mm | - | - | - |
| 1777200382 | 22.22° C | 88% | 1008 hPa | 0 mm | - | - | - |
| 1777198825 | 22.22° C | 84% | 1007.7 hPa | 0 mm | - | - | - |
| 1777196779 | 22.22° C | 82% | 1008 hPa | 0 mm | - | - | - |
| 1777196536 | 21.67° C | 82% | 1008 hPa | 0 mm | - | - | - |
| 1777195818 | 21.67° C | 81% | 1007.9 hPa | 0 mm | - | - | - |
| 1777194502 | 21.67° C | 83% | 1008.3 hPa | 0 mm | - | - | - |
| 1777194403 | 21.67° C | 83% | 1008.3 hPa | 0 mm | - | - | - |
| 1777193301 | 21.11° C | 83% | 1008 hPa | 0 mm | - | - | - |
| 1777192943 | 21.11° C | 82% | 1008 hPa | 0 mm | - | - | - |
| 1777192720 | 21.11° C | 82% | 1007.9 hPa | 0 mm | - | - | - |
| 1777192103 | 21.11° C | 81% | 1007.7 hPa | 0 mm | - | - | - |
| 1777191739 | 21.11° C | 80% | 1007.7 hPa | 0 mm | - | - | - |
| 1777191617 | 21.11° C | 80% | 1007.6 hPa | 0 mm | - | - | - |
| 1777191141 | 21.11° C | 80% | 1007.5 hPa | 0 mm | - | - | - |
| 1777190686 | 20.56° C | 81% | 1007.7 hPa | 0 mm | - | - | - |
| 1777190544 | 20.56° C | 81% | 1007.7 hPa | 0 mm | - | - | - |
| 1777189098 | 20.56° C | 82% | 1007.4 hPa | 0 mm | - | - | - |
| 1777188987 | 20.56° C | 81% | 1007.3 hPa | 0 mm | - | - | - |
| 1777188864 | 20.56° C | 81% | 1007.3 hPa | 0 mm | - | - | - |
| 1777188145 | 20.56° C | 81% | 1007.3 hPa | 0 mm | - | - | - |
| 1777187325 | 21.11° C | 80% | 1007.2 hPa | 0 mm | - | - | - |
| 1777186718 | 21.11° C | 79% | 1007.5 hPa | 0 mm | - | - | - |
| 1777185979 | 21.11° C | 80% | 1008 hPa | 0 mm | - | - | - |
* Rain latest hour (hover to see other rain measurements)
** Current wind speed in m/s (hover to see current wind gust speed)